Other Surface Observations
Issued by NWS Tucson, AZ

Home | Current Version | Previous Version | Text Only | Print | Product List | Glossary On
Versions: 1 2 3 4 5 6 7 8 9 10 11 12 13 14 15 16 17 18 19 20 21 22 23 24 25 26 27 28 29 30 31 32 33 34 35 36 37 38 39 40 41 42 43 44 45 46 47 48 49 50
000
SXUS55 KTWC 252315
OSOTWC

WEATHER ROUNDUP FOR SOUTHEAST ARIZONA
NATIONAL WEATHER SERVICE TUCSON AZ
415 PM MST SUN SEP 25 2016

AZZ504>506-514-260015-
LOCATION       SKY/WX    TMP DP  RH WIND       PRES   REMARKS
TUCSON         MOSUNNY   90  34  13 NE13      29.99F
DAVIS-MONTHAN  SUNNY     88  35  15 NE13G20   29.98F
CHILDRENS PARK N/A      N/A N/A  12 E8                PIMA CO DEQ
ALVERNON/22ND  N/A       92 N/A N/A E8                PIMA CO DEQ
CHERRY/GLENN   N/A       90 N/A N/A E8                PIMA CO DEQ
TANGERINE      N/A       89 N/A N/A E3                PIMA CO DEQ
CONTL RANCH    N/A       90  31  12 SW5               PIMA CO DEQ
GRANT/1ST      N/A       90  33  13 E8                PIMA CO DEQ
CRAYCROFT/22ND N/A       90  33  13 N/A               PIMA CO DEQ
GOLFLINKS/KOLB N/A       88  33  14 NE9               PIMA CO DEQ
AJO/12TH       N/A       88  33  14 SE6               PIMA CO DEQ
FAIRGROUNDS    N/A       86 N/A N/A N/A               PIMA CO DEQ
SAGUARO        N/A       91  35  14 SE9G18            *SABINO CYN
SAN CARLOS     N/A       90  34  14 S6G14             *SAN CARLOS
GREEN VALLEY   N/A       86  33  15 E8                PIMA CO DEQ
HORSE CAMP CYN N/A       83  35  18 E10G21            *ARAVAIPA CYN
RINCON MTNS    NOT AVBL
$$

AZZ509>511-260015-
LOCATION       SKY/WX    TMP DP  RH WIND       PRES   REMARKS
SAFFORD        SUNNY     87  35  15 SE8       30.02F
STRAY HORSE    N/A       67  29  24 SE4G10            *
TRAIL CABIN    N/A       71  35  27 E5G13             *N OF GRANVILLE
BLACK HILLS    NOT AVBL
DRY LAKE       N/A       71  33  25 E5G13             *NATANES MTNS
NOON CREEK     N/A       79  33  19 NE5G11            *PINALENO MTNS
COLUMBINE      N/A       58  31  35 S4G17             *PINALENO MTNS
GUTHRIE        N/A       72  33  24 E8G17             *SW OF GUTHRIE
$$

AZZ502-503-513-260015-
LOCATION       SKY/WX    TMP DP  RH WIND       PRES   REMARKS
NOGALES        MOSUNNY   83  36  18 N9G18     30.03F
SELLS          N/A       91  33  13 E7G13             *
SASABE         N/A       85  32  15 NE6G14            *ALTAR VLY
HOPKINS        N/A       63  33  32 E17G37            *SANTA RITA MTNS
CARR CYN       N/A       76  36  23 NE4               *W OF HEREFORD
$$

AZZ507-508-512-260015-
LOCATION       SKY/WX    TMP DP  RH WIND       PRES   REMARKS
SIERRA VISTA   MOSUNNY   81  37  21 NE24G30   30.11S
DOUGLAS        MOSUNNY   82  36  19 E15G28    30.06S
EMPIRE MTNS    NOT AVBL
MULESHOE RANCH N/A       80  34  19 E7G22             *PRESERVE
HEADQUARTERS   NOT AVBL
$$

.............................NOTES.............................
THIS IS AN AUTOMATED COLLECTIVE WITH MINIMAL QUALITY CONTROL.
PIMA CO DEQ SITES HAVE NONSTANDARD WIND SENSOR HEIGHTS.
PIMA CO DEQ SITES DO NOT REPORT WIND GUSTS.
* INDICATES WIND SENSORS LOCATED AT 20 FEET INSTEAD OF 33 FEET.
..............................KEY..............................
SKY/WX - SKY CONDITION/WEATHER
TMP    - TEMPERATURE IN FAHRENHEIT
DP     - DEWPOINT IN FAHRENHEIT
RH     - RELATIVE HUMIDITY IN PERCENT
WIND   - DIRECTION AND SPEED IN MILES PER HOUR (MPH)
VRB    - VARIABLE WIND DIRECTION
PRES   - MEAN SEA LEVEL PRESSURE IN INCHES OF MERCURY
         F - FALLING PRESSURE   R - RISING PRESSURE
         S - STEADY PRESSURE
VSB    - VISIBILITY IN MILES
HX     - HEAT INDEX IN FAHRENHEIT
WCI    - WIND CHILL INDEX IN FAHRENHEIT
N/A    - NOT AVAILABLE
AFB    - AIR FORCE BASE
         DAVIS-MONTHAN IS DAVIS-MONTHAN AIR FORCE BASE
CYN    - CANYON
MTNS   - MOUNTAINS
NCA    - NATIONAL CONSERVATION AREA
NR     - NEAR
VLY    - VALLEY
CONTL  - CONTINENTAL
PIMA CO DEQ - PIMA COUNTY DEPT OF ENVIRONMENTAL QUALITY



USA.gov is the U.S. government's official web portal to all federal, state and local government web resources and services.